Temp
12 12 12 12 13 13 14 14 15 15 15 16 16 16 17 17 17 17 17 18 17 17 18 18 18 18 18 18 18 18 13 15 19 18 19 20 20 20 21 20 20 20 20 20 17
11 11 12 12 12 13 13 14 14 15 15 15 16 16 16 17 17 17 18 18 18 17 18 18 18 18 18 18 18 16 12 16 19 19 18 20 20 20 20 20 20 19 20 20 17
9 12 12 12 12 12 13 13 14 14 15 15 16 16 16 16 16 17 18 18 17 18 17 18 18 17 18 18 18 16 15 17 19 19 19 19 19 20 19 18 20 20 19 18 17
8 9 12 12 12 12 12 13 13 14 14 15 16 16 16 16 17 17 17 17 17 17 17 17 17 17 17 17 18 18 18 18 19 19 19 18 19 19 19 21 21 21 20 19 18
7 7 8 11 11 12 12 12 13 13 14 15 15 15 16 15 17 17 17 17 17 17 17 17 17 17 16 17 18 17 18 19 18 18 18 18 18 17 18 21 21 20 19 18 18
7 7 7 10 11 11 12 12 12 13 13 14 14 15 15 14 17 16 17 17 17 17 17 17 18 17 18 18 17 18 18 18 18 18 17 17 17 18 20 21 20 19 19 19 18
7 7 8 8 10 11 11 12 12 13 13 13 14 14 14 16 16 16 16 16 16 17 17 17 17 17 17 17 18 17 17 16 16 17 17 17 16 14 20 20 20 20 20 19 19
7 7 9 9 9 10 11 11 12 12 13 13 13 13 14 15 16 16 16 16 16 16 16 16 16 17 17 17 17 16 15 15 16 15 16 16 16 17 19 19 19 19 19 19 19
6 7 7 9 9 10 10 11 11 12 13 13 13 13 14 14 14 15 15 16 16 16 15 16 16 16 16 13 12 13 14 14 16 15 15 15 16 17 19 19 19 19 19 19 19
6 7 7 9 8 9 10 10 10 11 12 12 12 12 12 13 14 14 14 15 15 15 15 15 15 11 11 12 12 14 14 15 16 15 15 14 13 13 18 17 18 19 19 20 19
5 7 7 7 7 9 9 9 10 11 11 13 14 13 13 13 13 13 14 14 14 14 12 14 11 11 12 12 15 14 16 17 17 15 15 13 12 12 16 16 16 18 19 19 20
3 6 7 7 7 7 8 9 11 11 11 13 13 13 13 13 12 12 13 14 13 12 12 11 10 12 13 13 14 15 16 15 15 14 14 14 13 12 13 13 13 14 16 16 16
3 6 7 7 6 6 8 10 11 11 10 13 13 12 13 13 14 12 13 13 11 11 10 11 14 13 13 15 14 14 13 14 15 14 14 13 12 12 13 11 11 11 12 13 14
4 3 7 6 6 6 7 10 11 11 6 8 11 12 12 13 13 14 13 14 12 11 10 12 13 15 13 14 14 15 14 15 14 11 11 12 12 12 12 9 8 8 10 11 13
3 2 4 6 6 6 9 10 10 11 6 10 9 11 12 13 12 11 13 14 11 12 11 12 12 13 14 14 14 14 14 13 13 10 10 11 8 11 11 10 7 7 8 10 11
3 2 3 6 6 8 9 10 10 6 4 7 8 8 9 11 10 10 12 13 13 13 13 12 13 13 13 11 13 10 11 9 7 6 7 10 10 11 11 10 8 7 7 8 10
3 2 2 3 6 8 9 9 7 4 8 7 7 8 9 8 9 9 9 10 10 10 10 11 12 12 12 11 12 11 10 6 7 5 10 10 10 10 8 7 7 6 6 7 8
2 2 2 4 6 8 8 8 6 6 7 8 8 8 8 9 9 9 8 10 10 11 8 8 9 10 11 12 11 9 10 7 8 7 10 10 9 9 7 7 7 6 6 7 7
2 2 2 4 5 7 7 7 8 6 9 8 8 7 8 10 9 9 8 10 11 9 12 9 11 10 10 11 12 10 10 10 8 9 7 8 8 9 7 6 6 6 6 6 6
1 1 2 5 5 6 7 7 7 9 9 9 8 8 8 9 9 10 8 10 10 11 12 10 10 9 9 11 11 10 10 9 7 8 10 8 8 7 6 6 5 5 5 5 5
1 2 4 6 5 6 6 7 7 10 11 10 9 8 9 9 9 9 9 11 11 10 12 10 10 8 9 9 9 9 10 10 9 6 7 8 9 8 7 6 5 4 5 4 5
0 2 5 6 4 5 5 8 9 9 10 10 11 11 9 9 8 9 9 10 8 11 11 11 7 6 8 9 9 9 9 9 8 9 5 5 7 5 5 5 5 4 4 4 4
-0 0 2 5 3 3 6 7 7 9 9 10 10 11 11 9 9 9 9 7 7 10 11 11 8 5 8 8 9 8 9 10 9 7 7 6 7 4 4 4 5 4 4 4 4
-1 1 1 3 3 5 5 6 6 7 9 9 10 10 11 10 11 8 7 6 6 7 8 11 8 8 9 9 8 8 8 9 10 6 8 8 3 3 2 2 3 4 4 3 3
-1 0 -1 2 1 3 5 4 5 6 5 6 8 9 9 8 10 7 6 6 6 6 7 9 8 9 9 9 9 9 9 8 10 9 9 8 6 4 3 3 3 4 3 3 2
-1 -0 -0 -0 1 2 4 4 5 3 4 5 4 3 2 6 5 6 5 7 8 6 6 5 5 5 6 9 10 10 10 8 9 9 10 7 6 4 4 4 3 3 3 2 2
-0 -0 -0 0 1 2 2 4 5 5 1 2 3 3 3 2 2 2 2 2 3 5 3 4 4 5 6 5 5 6 6 8 8 7 8 8 6 3 2 3 3 3 3 2 2
Height
1508 1508 1508 1509 1509 1510 1511 1511 1511 1510 1510 1509 1508 1508 1507 1507 1507 1507 1508 1509 1509 1509 1510 1511 1513 1515 1516 1517 1518 1518 1530 1534 1523 1526 1520 1518 1519 1520 1520 1521 1522 1522 1522 1524 1527
1503 1505 1505 1505 1506 1507 1508 1509 1509 1509 1508 1507 1507 1506 1506 1506 1506 1505 1507 1507 1508 1508 1510 1511 1512 1514 1516 1517 1518 1518 1532 1525 1516 1516 1517 1517 1517 1518 1521 1521 1521 1521 1522 1523 1525
1498 1501 1502 1503 1503 1503 1505 1506 1506 1507 1507 1506 1505 1504 1504 1505 1505 1502 1504 1505 1507 1507 1509 1511 1512 1514 1515 1516 1517 1518 1524 1517 1516 1516 1516 1516 1517 1517 1518 1520 1517 1516 1519 1521 1524
1494 1495 1498 1498 1500 1500 1501 1503 1503 1503 1504 1504 1503 1503 1503 1504 1506 1501 1502 1503 1505 1507 1508 1510 1511 1513 1514 1516 1515 1518 1515 1516 1515 1516 1516 1516 1517 1516 1515 1514 1514 1515 1517 1519 1521
1487 1491 1490 1494 1495 1496 1497 1498 1500 1501 1500 1501 1502 1502 1502 1503 1500 1500 1501 1502 1504 1505 1507 1509 1510 1512 1514 1514 1514 1515 1514 1515 1515 1515 1516 1516 1515 1516 1510 1512 1514 1514 1515 1516 1519
1483 1485 1487 1486 1490 1492 1493 1494 1496 1497 1498 1498 1499 1500 1500 1501 1498 1498 1499 1501 1503 1504 1507 1508 1509 1511 1512 1512 1514 1513 1513 1513 1514 1515 1515 1516 1516 1515 1507 1507 1510 1512 1513 1515 1516
1477 1481 1483 1483 1483 1488 1490 1491 1493 1494 1496 1496 1496 1497 1497 1496 1495 1496 1498 1499 1501 1503 1505 1508 1510 1511 1511 1512 1512 1513 1515 1513 1512 1513 1515 1515 1516 1512 1505 1507 1507 1508 1510 1512 1514
1472 1475 1478 1479 1481 1481 1484 1487 1489 1491 1493 1494 1494 1496 1494 1492 1492 1494 1496 1498 1500 1502 1505 1507 1509 1511 1511 1512 1513 1515 1517 1522 1511 1512 1514 1516 1520 1505 1505 1503 1505 1506 1508 1509 1511
1465 1468 1472 1476 1477 1479 1480 1483 1486 1488 1489 1491 1493 1494 1491 1488 1489 1490 1493 1496 1498 1501 1504 1506 1509 1511 1512 1516 1524 1521 1527 1524 1515 1512 1513 1516 1515 1505 1504 1504 1505 1506 1506 1507 1509
1456 1461 1466 1469 1474 1475 1479 1481 1482 1484 1486 1489 1490 1494 1487 1483 1485 1487 1490 1493 1496 1499 1504 1507 1508 1513 1516 1520 1536 1523 1524 1519 1518 1513 1514 1517 1516 1507 1504 1505 1504 1504 1505 1506 1506
1450 1455 1461 1464 1469 1470 1475 1481 1482 1482 1480 1476 1477 1478 1477 1481 1484 1486 1488 1492 1494 1498 1503 1505 1513 1516 1509 1510 1508 1511 1513 1515 1511 1511 1515 1517 1517 1509 1502 1502 1500 1500 1501 1502 1503
1442 1445 1454 1458 1462 1466 1468 1474 1471 1472 1474 1472 1473 1477 1478 1478 1483 1485 1488 1490 1491 1498 1500 1508 1512 1503 1505 1509 1511 1511 1513 1517 1514 1512 1515 1516 1514 1507 1503 1503 1498 1495 1498 1500 1501
1441 1437 1446 1453 1458 1459 1462 1467 1469 1469 1471 1467 1465 1471 1474 1477 1478 1480 1485 1487 1488 1493 1497 1504 1497 1495 1503 1505 1511 1512 1517 1517 1516 1515 1515 1516 1518 1513 1509 1506 1501 1499 1501 1500 1501
1436 1434 1441 1448 1453 1453 1457 1462 1467 1470 1480 1467 1462 1463 1469 1473 1476 1476 1481 1485 1487 1491 1495 1497 1491 1494 1500 1504 1506 1513 1508 1511 1515 1526 1536 1519 1538 1515 1514 1515 1509 1507 1504 1504 1502
1430 1429 1429 1436 1442 1446 1452 1458 1463 1469 1499 1454 1455 1455 1459 1466 1468 1474 1479 1481 1485 1486 1490 1491 1491 1493 1497 1498 1500 1508 1507 1512 1516 1529 1531 1526 1544 1519 1513 1518 1520 1515 1510 1506 1504
1427 1424 1424 1427 1436 1441 1448 1456 1461 1478 1486 1452 1450 1452 1457 1462 1465 1471 1476 1479 1481 1484 1486 1488 1487 1488 1489 1495 1497 1504 1512 1522 1531 1539 1552 1522 1526 1523 1517 1518 1520 1519 1516 1511 1507
1422 1417 1420 1417 1424 1434 1441 1450 1463 1472 1440 1449 1449 1448 1449 1459 1465 1466 1470 1475 1479 1493 1495 1492 1491 1489 1488 1497 1500 1504 1516 1552 1555 1565 1538 1523 1527 1521 1522 1520 1521 1520 1517 1515 1512
1419 1414 1414 1410 1422 1427 1434 1443 1454 1433 1436 1435 1440 1446 1451 1453 1460 1463 1468 1473 1471 1473 1491 1500 1507 1490 1485 1486 1495 1504 1506 1533 1546 1549 1529 1521 1527 1520 1522 1523 1522 1522 1520 1518 1515
1409 1406 1400 1400 1407 1418 1427 1436 1421 1425 1419 1431 1440 1446 1450 1449 1453 1459 1464 1463 1459 1463 1471 1488 1486 1484 1484 1483 1486 1503 1508 1501 1521 1526 1536 1524 1525 1525 1524 1524 1524 1523 1522 1521 1520
1410 1402 1390 1395 1403 1411 1418 1416 1415 1410 1412 1418 1428 1434 1441 1442 1448 1453 1459 1450 1453 1453 1457 1468 1485 1486 1486 1484 1487 1489 1490 1510 1519 1532 1524 1520 1520 1515 1519 1521 1523 1523 1524 1524 1524
1401 1396 1379 1386 1397 1401 1401 1409 1409 1404 1405 1412 1417 1428 1430 1434 1439 1446 1449 1443 1444 1449 1454 1462 1471 1491 1487 1486 1485 1492 1492 1493 1499 1512 1521 1520 1508 1500 1503 1514 1518 1521 1523 1523 1523
1398 1392 1377 1380 1383 1390 1392 1390 1398 1402 1403 1406 1407 1412 1421 1428 1435 1439 1441 1442 1445 1444 1451 1456 1473 1490 1484 1479 1480 1480 1483 1486 1499 1499 1514 1516 1508 1503 1504 1510 1515 1520 1522 1523 1524
1390 1381 1373 1371 1377 1388 1386 1397 1400 1400 1403 1405 1406 1407 1411 1421 1430 1432 1434 1442 1442 1442 1444 1449 1467 1494 1487 1484 1481 1482 1479 1477 1481 1489 1499 1510 1504 1509 1509 1513 1515 1517 1521 1522 1523
1388 1377 1370 1368 1375 1377 1385 1393 1401 1399 1400 1402 1405 1407 1410 1417 1417 1430 1438 1442 1441 1443 1445 1444 1457 1462 1465 1463 1468 1476 1474 1474 1476 1495 1489 1489 1512 1513 1512 1511 1513 1516 1518 1521 1523
1383 1375 1370 1365 1374 1372 1379 1390 1396 1400 1403 1403 1407 1407 1411 1421 1420 1429 1439 1442 1443 1444 1445 1446 1457 1456 1457 1458 1462 1463 1465 1469 1471 1473 1481 1481 1491 1497 1502 1505 1508 1511 1516 1520 1522
1382 1379 1371 1369 1369 1373 1379 1386 1387 1397 1396 1403 1409 1415 1417 1419 1422 1428 1431 1436 1438 1446 1449 1451 1464 1464 1467 1459 1459 1460 1462 1467 1469 1472 1473 1480 1486 1487 1498 1505 1508 1510 1513 1517 1520
1383 1378 1375 1372 1373 1373 1375 1376 1382 1390 1401 1402 1407 1412 1419 1423 1424 1429 1431 1435 1441 1440 1454 1455 1462 1467 1472 1470 1473 1477 1468 1465 1465 1467 1468 1475 1475 1486 1496 1501 1505 1509 1512 1515 1517
Wind_Speed
17 16 13 11 10 9 7 6 6 4 3 3 3 3 3 3 5 7 10 7 6 4 4 6 8 10 7 5 3 2 4 2 3 6 4 6 3 4 6 9 7 9 6 6 23
20 19 16 14 12 11 9 7 7 6 5 4 4 4 4 4 5 9 9 9 5 5 7 10 10 10 4 3 3 4 4 7 2 2 3 4 6 7 4 6 5 8 8 9 23
20 22 19 17 15 12 11 10 8 8 6 5 5 4 4 4 5 4 12 9 5 5 9 10 9 6 3 4 5 4 4 3 0 2 1 3 4 6 6 4 12 15 15 17 23
23 21 23 19 18 15 12 11 10 8 7 6 5 5 5 4 3 2 6 11 8 7 11 10 8 6 3 4 5 3 4 5 2 1 1 3 2 3 12 7 3 15 16 21 24
19 23 20 22 19 17 15 12 11 10 7 7 5 5 5 5 6 4 5 7 7 9 11 12 12 5 3 4 5 3 1 2 3 3 4 4 4 6 14 17 12 2 19 23 23
20 21 23 20 21 18 17 14 11 10 9 7 6 6 7 4 5 6 7 6 6 9 12 12 8 5 1 2 3 4 2 3 4 3 3 2 3 1 5 8 22 15 18 24 27
25 22 20 22 20 20 17 15 12 10 9 8 6 6 10 10 7 7 7 7 7 10 11 12 6 6 3 2 1 1 3 4 5 5 2 3 6 9 17 7 8 19 18 21 23
28 25 23 20 21 19 18 15 13 10 9 8 7 7 7 10 14 13 8 8 9 10 9 11 8 5 1 3 3 2 3 2 2 7 2 4 7 6 9 10 17 9 19 18 22
26 26 25 22 18 20 18 16 13 11 9 9 8 7 6 10 15 13 12 10 10 10 8 8 8 3 3 4 4 4 2 4 5 8 3 3 6 5 3 2 6 12 14 17 21
20 26 26 27 20 18 19 14 11 10 10 9 8 4 12 11 13 16 15 13 10 13 9 6 3 3 2 3 5 6 4 4 4 4 1 2 10 9 17 15 15 15 15 15 18
15 29 25 26 22 19 16 10 7 6 18 13 10 5 6 12 14 16 19 17 15 8 5 3 4 8 11 7 2 5 3 1 1 0 3 6 7 12 23 21 22 22 23 22 21
16 25 26 24 22 20 18 16 8 4 5 28 17 18 9 15 7 16 21 11 8 6 6 4 7 7 3 4 5 1 0 3 2 1 3 4 10 10 11 8 9 9 10 11 12
18 17 25 23 23 22 23 25 13 3 2 6 24 25 14 19 6 23 24 9 4 7 8 7 5 5 8 4 6 4 5 4 4 1 1 2 7 6 4 19 25 27 22 18 15
24 19 27 25 24 26 29 23 21 1 4 6 8 13 19 12 4 16 27 8 3 9 10 5 5 6 7 5 5 4 4 3 4 4 3 2 3 3 4 9 14 21 25 22 18
22 30 3 34 21 28 29 21 18 9 1 5 6 11 19 17 16 11 27 7 7 7 7 8 8 7 4 6 7 5 3 3 3 4 3 2 4 5 3 6 8 15 21 24 24
20 28 18 34 28 22 25 23 22 4 9 4 5 7 9 4 4 8 10 5 4 4 3 3 1 5 6 3 3 9 7 8 5 3 2 5 6 4 1 4 1 8 22 23 24
22 28 26 16 40 25 29 32 4 6 2 6 6 6 7 7 5 5 8 9 8 6 5 1 2 1 5 6 4 5 7 2 3 2 6 2 3 2 3 5 5 8 19 23 25
23 22 28 19 37 35 37 10 5 8 8 4 5 10 7 6 3 6 7 10 6 3 4 7 4 9 5 7 9 7 8 6 8 5 4 1 5 2 4 9 14 16 19 23 25
25 25 29 29 42 42 31 14 11 7 9 9 6 6 5 5 6 5 7 7 10 10 7 7 4 2 2 2 7 6 5 5 6 2 3 3 3 2 4 5 11 14 19 20 21
32 25 38 31 32 44 19 15 7 6 7 9 7 6 10 13 8 11 11 6 6 12 3 7 4 2 1 2 3 4 6 4 1 6 5 5 4 4 13 9 6 8 15 16 16
26 9 28 26 41 32 17 13 6 8 6 6 7 6 6 9 8 7 9 2 8 10 12 6 4 1 4 6 9 3 3 2 5 5 6 4 5 3 15 12 10 12 14 14 14
10 4 14 30 9 7 14 16 7 4 3 3 4 4 7 9 6 6 10 2 3 9 14 4 5 4 6 3 3 4 6 6 5 5 2 3 4 3 13 15 19 17 15 13 12
6 7 12 34 8 9 10 12 1 6 4 3 4 1 3 7 6 5 6 2 3 4 15 8 3 4 4 4 1 6 5 4 4 3 6 6 3 2 11 13 19 20 14 12 11
6 3 3 12 9 18 16 16 20 4 2 4 3 4 4 3 1 7 3 2 2 3 3 4 3 6 9 5 5 6 8 7 5 3 4 4 7 7 7 10 16 17 15 12 9
4 2 4 3 3 6 14 13 18 6 2 2 2 4 7 4 3 6 3 3 5 4 3 3 4 3 2 4 4 4 5 9 12 6 6 6 10 17 16 13 21 20 17 13 10
4 3 4 2 7 5 11 10 22 8 6 3 3 2 2 6 3 7 7 4 4 4 3 3 3 2 0 2 4 3 3 6 4 4 3 9 4 6 18 23 21 21 18 12 8
10 9 6 4 2 5 5 8 11 14 1 2 8 6 5 6 14 14 16 16 4 8 3 3 5 3 3 2 4 5 6 7 5 2 4 7 6 17 12 15 20 18 15 10 6
Wind_Direction
244 244 240 235 235 239 245 246 259 275 289 293 282 270 258 257 216 211 213 196 196 171 163 158 155 162 162 161 156 148 67 186 208 163 197 183 153 157 154 158 172 190 190 229 186
244 245 243 238 239 240 240 245 256 267 277 293 278 262 253 261 242 225 211 198 186 181 169 156 149 153 148 156 172 108 117 210 211 150 180 192 184 178 169 161 204 203 207 188 182
247 249 245 244 239 239 243 243 242 261 271 284 280 262 252 265 267 241 209 194 181 175 176 164 150 155 145 168 181 165 183 220 258 112 129 206 203 192 172 225 211 206 189 181 185
257 249 250 244 244 240 241 244 244 244 262 277 278 258 253 239 207 185 190 201 205 195 185 181 164 168 153 183 187 165 252 247 204 213 198 187 263 225 212 216 208 228 221 193 193
256 260 244 248 242 242 239 239 243 247 244 258 266 252 247 242 245 197 166 169 192 192 187 184 174 166 176 207 160 182 271 230 219 241 263 254 245 248 253 233 219 200 209 207 210
250 252 259 234 247 244 241 239 238 244 251 243 251 244 224 230 223 200 202 205 197 189 190 188 189 183 225 211 171 185 198 257 243 253 249 258 270 304 266 249 230 231 224 220 222
245 249 253 252 231 242 245 241 238 236 245 255 246 238 238 236 215 201 200 191 195 190 191 198 188 188 171 143 173 86 317 329 225 200 225 183 287 237 254 271 228 224 222 223 225
243 242 246 252 250 231 234 239 237 234 233 236 238 230 255 229 219 218 206 195 191 190 189 199 201 193 189 138 54 65 52 349 296 152 163 125 272 292 309 249 229 222 213 219 223
241 235 237 244 251 252 234 228 229 227 222 221 215 214 249 222 211 201 193 188 174 178 179 179 175 177 140 96 20 12 217 207 308 199 121 138 263 265 33 33 246 235 229 231 232
235 230 233 233 243 245 247 231 223 216 207 201 197 209 229 213 199 190 178 169 152 152 138 147 135 83 45 111 206 195 205 225 227 220 156 177 263 281 275 287 272 263 252 260 247
263 218 226 226 231 230 235 222 192 204 197 194 198 213 163 167 169 181 174 157 143 145 139 173 113 205 202 198 101 138 165 218 277 146 144 244 268 278 283 286 274 261 258 262 256
292 209 216 218 221 225 214 204 189 152 218 225 228 213 193 168 153 175 174 164 155 159 132 73 225 218 184 201 230 338 27 258 300 86 146 314 286 274 307 316 338 313 283 282 277
291 212 210 211 218 221 213 205 175 118 206 234 223 212 187 190 194 186 181 172 143 140 174 158 211 143 162 192 159 189 180 213 205 15 295 337 304 359 22 42 55 63 73 73 63
283 310 200 204 214 217 218 197 209 174 57 258 197 210 198 173 224 188 182 168 188 174 155 213 217 165 154 188 144 202 193 191 158 94 219 37 268 18 12 27 33 37 56 57 59
302 285 298 205 201 210 208 190 181 160 197 226 160 175 172 168 140 179 184 193 172 181 130 229 165 154 162 193 159 200 112 115 90 99 43 303 100 262 246 27 7 16 56 65 65
290 293 296 200 200 210 201 186 157 79 235 167 144 161 132 147 132 125 169 164 147 110 41 166 176 152 162 105 138 144 79 47 53 70 355 219 154 271 250 152 111 51 64 70 76
294 290 292 268 199 182 174 159 138 176 177 188 176 171 157 152 138 159 164 173 163 130 186 73 243 156 134 93 49 92 90 21 2 1 223 10 115 257 6 81 119 87 73 71 76
293 284 264 245 186 175 168 159 192 183 192 137 129 121 166 143 189 155 128 191 254 122 133 154 267 174 191 174 171 181 154 156 198 193 237 68 221 256 103 86 99 91 84 80 77
300 281 272 244 179 181 166 192 207 185 155 133 103 117 193 189 134 138 182 205 206 177 170 157 254 32 41 132 141 191 189 166 104 24 72 187 97 2 140 108 105 92 84 75 73
300 293 269 230 203 182 176 197 211 196 132 148 151 174 173 177 150 178 167 192 206 186 214 192 111 17 298 111 12 155 167 87 16 154 213 236 201 221 186 166 134 99 91 81 73
290 267 268 211 187 185 184 204 188 184 146 155 157 158 172 164 153 183 193 274 201 189 179 141 114 276 137 215 177 145 184 135 125 152 166 175 244 279 173 156 140 126 110 96 81
262 247 192 193 161 188 185 185 155 158 144 160 127 120 156 161 146 177 191 261 344 158 184 180 111 160 194 254 221 177 180 164 144 211 227 141 257 7 134 140 137 130 121 108 95
253 255 228 174 171 179 199 204 11 165 179 151 148 187 126 154 136 165 169 108 1 154 158 181 162 94 13 2 314 216 199 169 125 84 188 142 228 94 118 132 142 136 130 117 107
272 268 254 174 184 188 171 200 205 196 114 153 154 116 112 127 57 147 118 31 36 101 93 106 125 161 189 190 140 182 195 191 152 133 175 209 154 197 181 155 149 141 137 128 110
248 280 314 142 204 136 175 176 186 174 139 70 85 167 152 136 117 123 109 120 42 12 42 98 139 135 93 116 134 167 175 178 206 195 183 184 174 192 186 170 161 153 147 138 123
303 313 342 37 131 109 165 181 188 175 160 226 163 126 79 137 173 179 136 156 165 40 48 356 141 92 51 120 122 146 127 161 153 166 194 144 204 175 162 164 160 159 152 138 119
326 316 323 347 127 146 184 179 185 160 154 73 160 116 98 130 98 83 83 78 102 132 123 122 134 117 222 1 66 320 208 188 175 100 155 192 186 148 153 156 163 162 158 138 102